This demonstration page uses our WeatherBlox Daily Observations layout. Learn more.

Left ArrowRight Arrow

41.12389, -100.76542

Hourly Observations for March 7, 2021

Temp ( °F °C ) Dew Point ( °F °C ) Humidity (%) Winds ( mph kmh ) Pressure ( in mb ) Visibility ( mi km ) Precip ( " mm )
12:53 am 00:53 Clear 50 10 30 -1.1 46 46 SSE 16 26 29.89 1012 10 16 0.00 0.00
1:53 am 01:53 Clear 48 8.9 30 -1.1 50 50 S 10 17 29.90 1013 10 16 0.00 0.00
2:53 am 02:53 Clear 47 8.3 29 -1.7 50 50 ESE 7 11 29.91 1013 10 16 0.00 0.00
3:35 am 03:35 Clear 47 8.3 29 -1.7 50 50 SW 7 11 29.96 1015 10 16 0.00 0.00
3:53 am 03:53 Clear 45 7.2 29 -1.7 54 54 S 9 15 29.91 1013 10 16 0.00 0.00
4:53 am 04:53 Clear 42 5.6 29 -1.7 60 60 S 7 11 29.93 1013 10 16 0.00 0.00
5:53 am 05:53 Clear 34 1.1 26 -3.3 73 73 ESE 6 9 29.96 1014 10 16 0.00 0.00
6:53 am 06:53 Clear 32 0 26 -3.3 79 79 E 5 7 29.98 1015 10 16 0.00 0.00
7:53 am 07:53 Sunny 39 3.9 29 -1.7 67 67 S 6 9 29.99 1016 10 16 0.00 0.00
8:53 am 08:53 Sunny 44 6.7 32 0 63 63 Calm 30.00 1016 10 16 0.00 0.00
9:53 am 09:53 Sunny 52 11.1 31 -0.6 45 45 W 6 9 30.01 1016 10 16 0.00 0.00
10:53 am 10:53 Sunny 55 12.8 32 0 42 42 VRB 5 7 30.03 1017 10 16 0.00 0.00
11:53 am 11:53 Sunny 62 16.7 32 0 32 32 NW 6 9 30.01 1016 10 16 0.00 0.00
12:53 pm 12:53 Sunny 68 20 32 0 26 26 VRB 5 7 30.00 1016 10 16 0.00 0.00
1:53 pm 13:53 Sunny 72 22.2 29 -1.7 20 20 Calm 29.97 1015 10 16 0.00 0.00
2:53 pm 14:53 Sunny 75 23.9 29 -1.7 18 18 VRB 7 11 29.97 1015 10 16 0.00 0.00
3:53 pm 15:53 Sunny 76 24.4 26 -3.3 16 16 NNW 12 19 29.98 1015 10 16 0.00 0.00
4:53 pm 16:53 Sunny 73 22.8 28 -2.2 19 19 NNE 10 17 30.00 1016 10 16 0.00 0.00
5:53 pm 17:53 Sunny 65 18.3 30 -1.1 27 27 ENE 6 9 30.04 1017 10 16 0.00 0.00
6:53 pm 18:53 Clear 56 13.3 30 -1.1 37 37 E 3 6 30.07 1018 10 16 0.00 0.00
7:53 pm 19:53 Clear 50 10 30 -1.1 46 46 E 3 6 30.09 1019 10 16 0.00 0.00
8:53 pm 20:53 Clear 46 7.8 30 -1.1 54 54 ENE 6 9 30.11 1020 10 16 0.00 0.00
9:53 pm 21:53 Clear 44 6.7 31 -0.6 60 60 E 6 9 30.11 1020 10 16 0.00 0.00
10:53 pm 22:53 Clear 42 5.6 30 -1.1 62 62 ESE 5 7 30.11 1020 10 16 0.00 0.00
11:53 pm 23:53 Clear 40 4.4 30 -1.1 68 68 E 6 9 30.10 1019 10 16 0.00 0.00

Powered by AerisWeather